Total_Precipitation_Accumulation
3.33 3.54 4.12 3.93 3.56 3.38 3.13 3.24 3.46 3.43 3.46 3.47 3.45 3.20 3.15 3.20 3.24 3.50 3.76 4.00 4.24 4.51 4.57 4.37 4.33 4.26 4.04 3.94 4.02 3.77 3.63 3.77 3.74 3.68 3.88 3.91 3.97 4.06 4.29 4.39 4.45 3.49 3.11
2.56 2.88 3.63 3.58 3.36 3.42 3.41 3.44 3.37 3.31 3.41 3.54 3.25 2.91 2.89 2.99 3.09 3.44 3.85 4.14 4.60 4.88 4.56 4.22 4.16 4.10 4.09 4.02 3.90 3.73 3.76 4.08 4.20 4.38 4.60 4.43 4.62 4.60 4.57 4.31 4.38 3.62 3.33
2.18 2.36 2.85 3.41 3.38 3.57 3.69 3.38 3.22 3.21 3.26 3.27 2.97 2.88 2.99 3.16 3.20 3.36 3.56 3.89 4.55 4.69 4.41 4.15 4.03 4.06 4.08 4.24 4.03 3.82 3.98 4.26 4.59 5.07 5.27 4.20 3.95 4.51 4.69 4.40 4.02 3.59 3.26
1.94 1.98 2.19 3.06 3.51 3.78 3.59 3.36 3.15 3.16 3.29 3.03 2.91 2.86 2.97 3.30 3.53 3.77 3.77 3.91 4.14 4.16 4.05 4.05 4.00 4.17 4.17 3.99 3.90 4.04 4.28 4.22 4.57 4.98 4.71 3.53 2.98 3.53 4.00 4.04 3.75 3.51 3.37
1.80 1.91 2.33 3.21 3.46 3.45 3.41 3.24 3.23 3.33 3.25 2.99 2.73 2.67 2.79 3.05 3.34 3.55 3.79 4.01 3.90 4.00 4.04 4.10 4.00 4.23 4.22 3.93 4.01 4.17 4.31 4.26 4.49 4.27 3.58 3.64 3.55 3.46 3.40 3.69 3.95 3.95 3.73
1.83 2.04 2.65 3.24 3.17 3.33 3.32 3.28 3.24 3.15 3.05 2.86 2.64 2.58 2.74 2.87 3.01 3.10 3.41 3.62 3.72 3.80 3.98 4.14 4.12 4.25 4.26 4.26 4.33 4.21 4.04 3.96 3.87 3.00 2.84 3.24 3.21 3.30 3.34 3.75 4.03 4.12 3.98
1.86 2.27 2.79 3.19 3.19 3.35 3.21 3.17 3.06 2.91 2.83 2.71 2.54 2.38 2.58 2.72 2.87 3.03 3.14 3.39 3.72 3.86 3.90 4.03 4.19 4.24 4.46 4.94 4.87 4.37 3.98 3.79 3.22 2.64 2.63 2.96 2.90 2.95 3.46 3.85 3.92 3.82 3.76
2.10 2.40 2.98 3.47 3.53 3.60 3.39 3.13 2.98 2.75 2.59 2.57 2.48 2.43 2.39 2.59 2.75 2.80 2.99 3.27 3.69 4.04 3.97 3.93 4.08 4.11 4.71 5.13 4.66 4.05 3.79 3.29 2.60 2.48 2.52 2.70 2.53 2.69 3.37 3.78 3.94 4.04 3.91
2.36 2.55 2.92 3.34 3.43 3.45 3.29 3.20 2.97 2.82 2.70 2.69 2.63 2.48 2.54 2.55 2.50 2.51 2.74 3.14 3.46 3.86 3.79 3.83 3.99 4.32 4.73 4.55 4.07 3.81 3.72 3.37 2.71 2.64 2.45 2.53 2.40 2.75 3.19 3.45 3.59 3.83 3.83
2.76 2.77 2.67 2.74 3.05 2.94 2.83 3.01 2.96 2.94 2.93 2.90 2.87 2.81 2.99 2.90 2.61 2.62 2.66 2.99 3.32 3.52 3.41 3.50 3.84 4.21 4.16 4.07 3.84 3.77 3.75 3.44 2.76 2.65 2.75 2.43 2.51 3.00 3.35 3.38 3.58 3.81 3.58
3.06 2.79 2.50 2.44 2.74 2.76 2.52 2.61 3.14 3.28 3.22 3.21 3.36 3.46 3.77 3.84 3.24 3.23 2.87 3.16 3.55 3.54 3.43 3.67 3.91 4.22 4.25 4.10 4.08 4.09 3.82 3.21 3.06 3.04 3.16 2.63 2.65 3.24 3.61 3.70 3.71 3.53 3.36
3.01 3.01 2.78 2.50 2.46 2.55 2.33 2.57 3.41 3.33 3.42 3.68 4.01 3.90 4.14 4.08 3.88 3.08 3.17 3.76 3.89 3.92 4.07 4.47 4.81 4.55 4.26 4.14 4.42 4.68 3.78 3.30 3.15 2.96 3.00 2.70 2.88 3.52 4.00 4.04 3.93 3.40 3.24
2.94 2.80 2.95 2.79 2.59 2.59 2.81 2.72 3.06 3.42 3.64 3.83 3.81 3.76 3.95 3.51 3.34 3.30 3.86 4.36 4.16 4.01 4.20 4.63 4.98 4.11 4.12 4.82 4.92 4.53 4.06 3.80 3.49 3.31 3.28 3.10 3.39 4.09 4.55 4.59 4.34 3.68 3.37
3.20 3.05 3.35 3.28 3.17 3.20 3.00 3.02 2.95 2.96 3.03 3.13 3.38 3.20 3.21 3.40 3.43 3.70 4.15 4.24 4.20 4.29 4.69 4.55 4.70 4.56 4.73 4.73 4.60 4.57 4.49 4.20 3.93 3.87 4.16 3.89 4.01 4.37 4.96 4.98 4.52 4.14 3.90
3.58 3.62 3.80 3.80 3.90 3.80 3.62 3.46 2.89 2.97 2.85 2.79 2.91 2.87 2.97 3.35 3.60 4.06 4.03 4.08 3.73 3.87 4.27 4.64 4.61 4.86 5.17 4.98 4.38 4.12 4.28 4.16 3.86 3.60 3.81 4.04 4.15 4.22 4.76 5.14 4.78 4.49 4.32
4.02 4.33 4.36 4.32 4.33 4.18 3.82 3.59 3.27 2.91 2.98 2.72 2.75 2.82 3.28 3.60 3.80 4.18 4.16 4.10 3.74 3.72 4.06 4.44 4.50 4.85 4.98 5.01 4.39 4.00 4.03 3.97 3.63 3.30 3.37 3.86 3.99 3.98 4.32 4.86 5.00 4.96 4.69
4.63 4.89 5.18 5.05 4.71 4.81 4.44 3.66 3.09 2.82 2.65 2.79 3.00 3.08 3.40 3.59 4.03 4.37 4.33 3.95 3.72 3.81 4.04 4.05 4.20 4.70 4.60 4.51 4.40 4.22 4.07 3.85 3.49 3.46 3.39 3.60 3.45 3.67 4.08 4.32 4.67 5.02 5.11
5.11 5.56 5.83 5.39 5.35 5.43 5.12 4.48 3.79 3.42 3.28 3.37 3.45 3.35 3.18 3.40 3.64 4.07 3.79 3.37 3.47 3.72 4.05 4.11 3.99 4.37 4.60 4.58 4.62 4.40 4.09 3.88 3.45 3.36 3.34 3.31 3.33 3.12 3.54 4.01 4.43 4.78 5.21
5.32 6.06 6.51 6.75 6.32 5.99 5.44 4.97 4.39 4.06 3.93 3.68 3.51 3.26 3.00 2.80 2.72 3.13 3.13 3.03 3.02 3.42 3.70 3.26 3.48 3.81 4.08 4.34 3.97 3.83 3.43 3.24 3.19 2.96 2.87 2.78 3.03 3.23 3.41 3.55 4.01 4.38 5.08
5.42 6.16 6.57 6.91 6.45 5.77 5.44 5.43 5.08 4.50 4.05 3.64 3.36 3.19 2.80 2.73 2.52 2.86 2.88 2.70 2.66 3.02 3.31 3.49 3.71 3.73 3.56 3.69 3.23 3.19 3.13 2.89 2.93 2.89 2.67 2.64 2.78 2.72 3.05 3.45 3.86 3.73 4.35
5.80 6.47 6.63 6.47 5.82 5.31 4.92 4.72 4.46 4.25 3.94 3.40 3.03 2.81 2.71 2.58 2.60 3.01 2.81 2.92 2.76 2.88 3.06 3.18 3.36 3.41 3.19 3.36 3.75 3.63 3.23 2.90 2.88 2.80 2.69 2.76 2.81 2.91 3.13 3.60 3.87 4.00 3.92
5.32 5.68 5.82 5.51 4.77 4.32 4.14 4.17 3.91 3.67 3.33 3.12 2.89 2.92 2.53 2.40 2.51 2.50 2.84 2.71 2.68 2.99 3.03 3.18 3.37 3.27 2.95 3.15 3.70 3.99 3.79 3.78 3.19 2.46 2.62 2.74 2.82 3.14 3.15 3.10 3.41 4.04 4.11
4.79 4.58 4.30 4.17 3.84 3.81 3.83 3.66 3.46 3.38 3.13 2.98 2.81 2.78 2.44 2.15 2.16 2.34 2.46 2.45 2.65 2.63 2.93 3.16 3.20 3.37 3.38 3.16 3.15 3.65 3.72 3.77 3.46 2.82 2.45 2.55 2.87 3.25 3.27 3.26 3.23 3.60 3.92
3.81 3.55 3.39 3.37 3.35 3.36 3.29 3.20 2.93 2.81 2.80 2.68 2.65 2.73 2.61 2.25 2.17 2.25 2.36 2.56 2.70 2.56 2.95 2.67 2.86 3.32 3.54 3.23 3.22 3.11 3.16 3.37 3.46 3.36 2.92 2.58 2.71 2.86 3.09 3.11 3.16 3.48 3.76
2.53 2.72 2.83 2.99 3.19 3.13 3.10 3.15 3.11 2.79 2.72 2.71 2.74 2.91 2.86 2.59 2.34 2.15 2.43 2.79 2.90 2.72 2.77 2.83 3.24 3.22 3.26 3.23 3.21 3.16 3.24 3.31 3.12 3.18 3.17 2.96 2.73 2.35 2.47 2.83 3.15 3.35 3.51
1.86 2.13 2.36 2.51 2.70 2.88 2.95 2.82 2.76 2.73 2.81 2.88 2.89 2.79 2.63 2.52 2.44 2.30 2.49 2.82 2.84 2.91 2.94 2.91 3.05 3.14 3.27 3.37 3.26 3.03 3.10 3.17 3.22 3.38 3.04 2.96 2.98 2.55 2.57 2.82 2.96 3.20 3.24